Regional Weather Roundup
Issued by NWS Sioux Falls, SD

Home | Current Version | Previous Version | Graphics & Text | Print | Product List | Glossary On
Versions: 1 2 3 4 5 6 7 8 9 10 11 12 13 14 15 16 17 18 19 20 21 22 23 24 25 26 27 28 29 30 31 32 33 34 35 36 37 38 39 40 41 42 43 44 45 46 47 48 49 50
785
ASUS43 KFSD 090002
RWRFSD

WEATHER ROUNDUP FOR SE SOUTH DAKOTA/SW MINNESOTA/NW IOWA
NATIONAL WEATHER SERVICE SIOUX FALLS SD
600 PM CST MON FEB 08 2016

NOTE: "FAIR" INDICATES FEW OR NO CLOUDS BELOW 12,000 FEET WITH NO
SIGNIFICANT WEATHER AND OR OBSTRUCTIONS TO VISIBILITY.


SDZ038>040-050-052>070-090100-
SOUTHEAST SOUTH DAKOTA

CITY           SKY/WX    TMP DP  RH WIND       PRES   REMARKS
BROOKINGS      MOCLDY    19  13  77 N22       30.07S WCI   2
CHAMBERLAIN    NOT AVBL
HURON          CLEAR     29  16  58 N20       30.17R WCI  16
6HR MIN TEMP:  28; 6HR MAX TEMP:  33;

MADISON        FAIR      23  18  80 N17G26    30.10R WCI   9
MITCHELL       CLOUDY    32  19  58 N17G31    30.16S WCI  21
6HR MIN TEMP:  30; 6HR MAX TEMP:  34;

SIOUX FALLS    MOCLDY    24  14  65 N16       30.10R WCI  11
6HR MIN TEMP:  22; 6HR MAX TEMP:  25; 6HR PCP: TRACE;

WINNER         CLOUDY    34  20  56 NW9       30.20F WCI  27
YANKTON        PTCLDY    30  18  59 NW17      30.13F WCI  18
$$

MNZ071-072-080-081-089-090-097-098-090100-
SOUTHWEST MINNESOTA

CITY           SKY/WX    TMP DP  RH WIND       PRES   REMARKS
FAIRMONT       CLOUDY   N/A N/A N/A NW31G38   29.99S
JACKSON        MOCLDY    16   9  73 NW29G39   30.03S WCI  -4
LUVERNE        PTCLDY    23  16  74 N15G24    30.09S WCI  10
MARSHALL       FLURRIES  15   8  73 N25G35    30.09R WCI  -4
6HR MIN TEMP:  15; 6HR MAX TEMP:  18; 6HR PCP: TRACE;

MONTEVIDEO     PTCLDY    14   9  79 N25G36    30.12S WCI  -5
PIPESTONE      PTCLDY    19   9  63 N16G28    30.07S WCI   5
REDWOOD FALLS  MOCLDY    14   5  67 NW20G30   30.07R WCI  -3
TRACY          CLEAR     16  10  79 N29       30.08R WCI  -4
WINDOM         FLURRIES  12   9  85 NW26G33   30.04R WCI  -8
WORTHINGTON    MOCLDY    14   9  79 N23       30.06S WCI  -5
$$

IAZ001>003-012>014-020>022-031-032-NEZ013-014-SDZ071-090100-
NORTHWEST IOWA

CITY           SKY/WX    TMP DP  RH WIND       PRES   REMARKS
ESTHERVILLE    LGT SNOW  14  10  84 NW20G31   30.03R FOG     WCI  -3
SIOUX CITY     PTCLDY    28  18  66 N17       30.10S WCI  16
6HR MIN TEMP:  26; 6HR MAX TEMP:  30; 6HR PCP: TRACE;

SPENCER        LGT SNOW  16  10  77 NW24G33   30.05F WCI  -2
6HR MIN TEMP:  15; 6HR MAX TEMP:  18; 6HR PCP: TRACE;

STORM LAKE     CLOUDY    18  12  79 N20G30    30.04S WCI   1
$$

ABBREVIATIONS USED IN REMARKS
   TC - TEMPERATURE IN CELSIUS
  WCI - WIND CHILL INDEX
   HX - HEAT INDEX
  VSB - VISIBILITY





USA.gov is the U.S. government's official web portal to all federal, state and local government web resources and services.